CUBERRT (43546 NORAD) Tracking and Keplerian Element Data

This shows tracking and keplerian element data for the satellite.

Feedback or suggestion? Click here.




ElementValue
Catalog43546
NameCUBERRT
Epoch Orbit13592
Epoch Day331.81655936
Epoch Year2020
RAAN158.6708
Inclination51.6163
Eccentricity0.0006544
Argument of Perigee274.8638
Mean Anonmoly85.1642
Mean Motion16.42129147
Decay Rate0.13652478
L11 43546U 98067NU 20331.81655936 .13652478 12467-4 74947-3 0 9998
L22 43546 51.6163 158.6708 0006544 274.8638 85.1642 16.42129147135921



Live tracking and technical data element details for CUBERRT (NORAD 43546). CUBERRT can be tracked NOW for your location showing map with azimuth and elevation plus other details from your city location.







IsCatalogInMostPopularTable: catalog: 43546, numindb: 562
Update: records affected: 1



GetName: 43546 CUBERRT

Hit Count: updated at: Fri, 16 May 2025 10:19:52 GMT